This is the latest recevied weather packets stored in our database for station/object SV9TNF-51. If no packets are shown the sender has not sent any weather packets the latest 10 day(s).
| Time | Temp. | Humidity | Pressure | Rain* | Wind** | Luminosity | Snow |
|---|---|---|---|---|---|---|---|
| 1788551243 | 26.67° C | 44% | 1013.6 hPa | 0 mm | 0.89 m/s, 121° | - | - |
| 1788550943 | 26.67° C | 45% | 1013.6 hPa | 0 mm | 0.89 m/s, 126° | - | - |
| 1788550642 | 26.67° C | 44% | 1013.6 hPa | 0 mm | 2.24 m/s, 132° | - | - |
| 1788550342 | 26.67° C | 45% | 1013.6 hPa | 0 mm | 1.79 m/s, 98° | - | - |
| 1788550042 | 26.67° C | 45% | 1013.6 hPa | 0 mm | 1.34 m/s, 117° | - | - |
| 1788549743 | 26.67° C | 44% | 1013.9 hPa | 0 mm | 1.79 m/s, 127° | - | - |
| 1788549442 | 26.67° C | 43% | 1013.9 hPa | 0 mm | 1.79 m/s, 138° | - | - |
| 1788549142 | 26.67° C | 45% | 1013.9 hPa | 0 mm | 0 m/s | - | - |
| 1788548842 | 26.67° C | 45% | 1013.9 hPa | 0 mm | 1.79 m/s, 169° | - | - |
| 1788548542 | 26.67° C | 45% | 1013.9 hPa | 0 mm | 1.79 m/s, 118° | - | - |
| 1788548242 | 26.67° C | 45% | 1013.6 hPa | 0 mm | 0 m/s | - | - |
| 1788547942 | 26.67° C | 45% | 1013.6 hPa | 0 mm | 0.45 m/s, 130° | - | - |
| 1788547642 | 26.67° C | 44% | 1013.6 hPa | 0 mm | 0.89 m/s, 128° | - | - |
| 1788547189 | 27.22° C | 44% | 1013.6 hPa | 0 mm | 0 m/s | - | - |
| 1788546889 | 27.22° C | 45% | 1013.2 hPa | 0 mm | 0.89 m/s, 125° | - | - |
| 1788546589 | 27.22° C | 45% | 1013.2 hPa | 0 mm | 1.34 m/s, 125° | - | - |
| 1788546290 | 27.22° C | 45% | 1012.5 hPa | 0 mm | 0 m/s | - | - |
| 1788545989 | 27.22° C | 45% | 1012.5 hPa | 0 mm | 1.34 m/s, 126° | - | - |
| 1788545689 | 27.22° C | 45% | 1012.5 hPa | 0 mm | 0 m/s | - | - |
| 1788545389 | 27.22° C | 45% | 1012.5 hPa | 0 mm | 0 m/s | - | - |
| 1788545089 | 27.78° C | 44% | 1012.5 hPa | 0 mm | 0 m/s | - | - |
| 1788544789 | 27.78° C | 44% | 1012.2 hPa | 0 mm | 0.45 m/s, 127° | - | - |
| 1788544489 | 27.78° C | 44% | 1012.2 hPa | 0 mm | 0.89 m/s, 130° | - | - |
| 1788544188 | 27.78° C | 45% | 1012.2 hPa | 0 mm | 0 m/s | - | - |
| 1788543888 | 27.78° C | 44% | 1012.2 hPa | 0 mm | 2.24 m/s, 129° | - | - |
* Rain latest hour (hover to see other rain measurements)
** Current wind speed in m/s (hover to see current wind gust speed)